owner,sensor,date,latitude,longitude,vertical_datum,sea_water_temperature,qcFlag 
COMPS,ioos:station:USF.COMPS:C10:1,2014-01-01T00:05:00Z,27.1690,-82.9260,-1.0,21.013,2 
COMPS,ioos:station:USF.COMPS:C10:1,2014-01-01T00:35:00Z,27.1690,-82.9260,-1.0,20.998,2 
COMPS,ioos:station:USF.COMPS:C10:1,2014-01-01T01:05:00Z,27.1690,-82.9260,-1.0,20.999,2 
COMPS,ioos:station:USF.COMPS:C10:1,2014-01-01T01:35:00Z,27.1690,-82.9260,-1.0,20.994,2 
COMPS,ioos:station:USF.COMPS:C10:1,2014-01-01T02:05:00Z,27.1690,-82.9260,-1.0,20.988,2 
COMPS,ioos:station:USF.COMPS:C10:1,2014-01-01T02:35:00Z,27.1690,-82.9260,-1.0,20.983,2 
COMPS,ioos:station:USF.COMPS:C10:1,2014-01-01T03:05:00Z,27.1690,-82.9260,-1.0,20.962,2 
COMPS,ioos:station:USF.COMPS:C10:1,2014-01-01T03:35:00Z,27.1690,-82.9260,-1.0,20.946,2 
COMPS,ioos:station:USF.COMPS:C10:1,2014-01-01T04:05:00Z,27.1690,-82.9260,-1.0,20.927,2 
COMPS,ioos:station:USF.COMPS:C10:1,2014-01-01T04:35:00Z,27.1690,-82.9260,-1.0,20.918,2 
COMPS,ioos:station:USF.COMPS:C10:1,2014-01-01T05:05:00Z,27.1690,-82.9260,-1.0,20.889,2 
COMPS,ioos:station:USF.COMPS:C10:1,2014-01-01T05:35:00Z,27.1690,-82.9260,-1.0,20.88,2 
COMPS,ioos:station:USF.COMPS:C10:1,2014-01-01T06:05:00Z,27.1690,-82.9260,-1.0,20.857,2 
COMPS,ioos:station:USF.COMPS:C10:1,2014-01-01T06:35:00Z,27.1690,-82.9260,-1.0,20.846,2 
COMPS,ioos:station:USF.COMPS:C10:1,2014-01-01T07:05:00Z,27.1690,-82.9260,-1.0,20.835,2 
COMPS,ioos:station:USF.COMPS:C10:1,2014-01-01T07:35:00Z,27.1690,-82.9260,-1.0,20.814,2 
COMPS,ioos:station:USF.COMPS:C10:1,2014-01-01T08:05:00Z,27.1690,-82.9260,-1.0,20.788,2 
COMPS,ioos:station:USF.COMPS:C10:1,2014-01-01T08:35:00Z,27.1690,-82.9260,-1.0,20.769,2 
COMPS,ioos:station:USF.COMPS:C10:1,2014-01-01T09:05:00Z,27.1690,-82.9260,-1.0,20.756,2 
COMPS,ioos:station:USF.COMPS:C10:1,2014-01-01T09:35:00Z,27.1690,-82.9260,-1.0,20.757,2 
COMPS,ioos:station:USF.COMPS:C10:1,2014-01-01T10:05:00Z,27.1690,-82.9260,-1.0,20.739,2 
COMPS,ioos:station:USF.COMPS:C10:1,2014-01-01T10:35:00Z,27.1690,-82.9260,-1.0,20.735,2 
COMPS,ioos:station:USF.COMPS:C10:1,2014-01-01T11:05:00Z,27.1690,-82.9260,-1.0,20.72,2 
COMPS,ioos:station:USF.COMPS:C10:1,2014-01-01T11:35:00Z,27.1690,-82.9260,-1.0,20.717,2 
COMPS,ioos:station:USF.COMPS:C10:1,2014-01-01T12:05:00Z,27.1690,-82.9260,-1.0,20.719,2 
COMPS,ioos:station:USF.COMPS:C10:1,2014-01-01T12:35:00Z,27.1690,-82.9260,-1.0,20.728,2 
COMPS,ioos:station:USF.COMPS:C10:1,2014-01-01T13:05:00Z,27.1690,-82.9260,-1.0,20.718,2 
COMPS,ioos:station:USF.COMPS:C10:1,2014-01-01T13:35:00Z,27.1690,-82.9260,-1.0,20.722,2 
COMPS,ioos:station:USF.COMPS:C10:1,2014-01-01T14:05:00Z,27.1690,-82.9260,-1.0,20.718,2 
COMPS,ioos:station:USF.COMPS:C10:1,2014-01-01T14:35:00Z,27.1690,-82.9260,-1.0,20.725,2 
COMPS,ioos:station:USF.COMPS:C10:1,2014-01-01T15:05:00Z,27.1690,-82.9260,-1.0,20.711,2 
COMPS,ioos:station:USF.COMPS:C10:1,2014-01-01T15:35:00Z,27.1690,-82.9260,-1.0,20.714,2 
COMPS,ioos:station:USF.COMPS:C10:1,2014-01-01T16:05:00Z,27.1690,-82.9260,-1.0,20.721,2 
COMPS,ioos:station:USF.COMPS:C10:1,2014-01-01T16:35:00Z,27.1690,-82.9260,-1.0,20.728,2 
COMPS,ioos:station:USF.COMPS:C10:1,2014-01-01T17:05:00Z,27.1690,-82.9260,-1.0,20.723,2 
COMPS,ioos:station:USF.COMPS:C10:1,2014-01-01T17:35:00Z,27.1690,-82.9260,-1.0,20.732,2 
COMPS,ioos:station:USF.COMPS:C10:1,2014-01-01T18:05:00Z,27.1690,-82.9260,-1.0,20.738,2 
COMPS,ioos:station:USF.COMPS:C10:1,2014-01-01T18:35:00Z,27.1690,-82.9260,-1.0,20.738,2 
COMPS,ioos:station:USF.COMPS:C10:1,2014-01-01T19:05:00Z,27.1690,-82.9260,-1.0,20.741,2 
COMPS,ioos:station:USF.COMPS:C10:1,2014-01-01T19:35:00Z,27.1690,-82.9260,-1.0,20.761,2 
COMPS,ioos:station:USF.COMPS:C10:1,2014-01-01T20:05:00Z,27.1690,-82.9260,-1.0,20.754,2 
COMPS,ioos:station:USF.COMPS:C10:1,2014-01-01T20:35:00Z,27.1690,-82.9260,-1.0,20.748,2 
COMPS,ioos:station:USF.COMPS:C10:1,2014-01-01T21:05:00Z,27.1690,-82.9260,-1.0,20.745,2 
COMPS,ioos:station:USF.COMPS:C10:1,2014-01-01T21:35:00Z,27.1690,-82.9260,-1.0,20.741,2 
COMPS,ioos:station:USF.COMPS:C10:1,2014-01-01T22:05:00Z,27.1690,-82.9260,-1.0,20.737,2 
COMPS,ioos:station:USF.COMPS:C10:1,2014-01-01T22:35:00Z,27.1690,-82.9260,-1.0,20.737,2 
COMPS,ioos:station:USF.COMPS:C10:1,2014-01-01T23:05:00Z,27.1690,-82.9260,-1.0,20.735,2 
COMPS,ioos:station:USF.COMPS:C10:1,2014-01-01T23:35:00Z,27.1690,-82.9260,-1.0,20.742,2 
COMPS,ioos:station:USF.COMPS:C10:1,2014-01-02T00:05:00Z,27.1690,-82.9260,-1.0,20.748,2 
COMPS,ioos:station:USF.COMPS:C10:1,2014-01-02T00:35:00Z,27.1690,-82.9260,-1.0,20.75,2 
COMPS,ioos:station:USF.COMPS:C10:1,2014-01-02T01:05:00Z,27.1690,-82.9260,-1.0,20.761,2 
COMPS,ioos:station:USF.COMPS:C10:1,2014-01-02T01:35:00Z,27.1690,-82.9260,-1.0,20.761,2 
COMPS,ioos:station:USF.COMPS:C10:1,2014-01-02T02:05:00Z,27.1690,-82.9260,-1.0,20.768,2 
COMPS,ioos:station:USF.COMPS:C10:1,2014-01-02T02:35:00Z,27.1690,-82.9260,-1.0,20.768,2 
COMPS,ioos:station:USF.COMPS:C10:1,2014-01-02T03:05:00Z,27.1690,-82.9260,-1.0,20.778,2 
COMPS,ioos:station:USF.COMPS:C10:1,2014-01-02T03:35:00Z,27.1690,-82.9260,-1.0,20.785,2 
COMPS,ioos:station:USF.COMPS:C10:1,2014-01-02T04:05:00Z,27.1690,-82.9260,-1.0,20.784,2 
COMPS,ioos:station:USF.COMPS:C10:1,2014-01-02T04:35:00Z,27.1690,-82.9260,-1.0,20.786,2 
COMPS,ioos:station:USF.COMPS:C10:1,2014-01-02T05:05:00Z,27.1690,-82.9260,-1.0,20.788,2 
COMPS,ioos:station:USF.COMPS:C10:1,2014-01-02T05:35:00Z,27.1690,-82.9260,-1.0,20.781,2 
COMPS,ioos:station:USF.COMPS:C10:1,2014-01-02T06:05:00Z,27.1690,-82.9260,-1.0,20.777,2 
COMPS,ioos:station:USF.COMPS:C10:1,2014-01-02T06:35:00Z,27.1690,-82.9260,-1.0,20.774,2 
COMPS,ioos:station:USF.COMPS:C10:1,2014-01-02T07:05:00Z,27.1690,-82.9260,-1.0,20.769,2 
COMPS,ioos:station:USF.COMPS:C10:1,2014-01-02T07:35:00Z,27.1690,-82.9260,-1.0,20.762,2 
COMPS,ioos:station:USF.COMPS:C10:1,2014-01-02T08:05:00Z,27.1690,-82.9260,-1.0,20.754,2 
COMPS,ioos:station:USF.COMPS:C10:1,2014-01-02T08:35:00Z,27.1690,-82.9260,-1.0,20.748,2 
COMPS,ioos:station:USF.COMPS:C10:1,2014-01-02T09:05:00Z,27.1690,-82.9260,-1.0,20.745,2 
COMPS,ioos:station:USF.COMPS:C10:1,2014-01-02T09:35:00Z,27.1690,-82.9260,-1.0,20.748,2 
COMPS,ioos:station:USF.COMPS:C10:1,2014-01-02T10:05:00Z,27.1690,-82.9260,-1.0,20.75,2 
COMPS,ioos:station:USF.COMPS:C10:1,2014-01-02T10:35:00Z,27.1690,-82.9260,-1.0,20.756,2 
COMPS,ioos:station:USF.COMPS:C10:1,2014-01-02T11:05:00Z,27.1690,-82.9260,-1.0,20.763,2 
COMPS,ioos:station:USF.COMPS:C10:1,2014-01-02T11:35:00Z,27.1690,-82.9260,-1.0,20.771,2 
COMPS,ioos:station:USF.COMPS:C10:1,2014-01-02T12:05:00Z,27.1690,-82.9260,-1.0,20.782,2 
COMPS,ioos:station:USF.COMPS:C10:1,2014-01-02T12:35:00Z,27.1690,-82.9260,-1.0,20.789,2 
COMPS,ioos:station:USF.COMPS:C10:1,2014-01-02T13:05:00Z,27.1690,-82.9260,-1.0,20.799,2 
COMPS,ioos:station:USF.COMPS:C10:1,2014-01-02T13:35:00Z,27.1690,-82.9260,-1.0,20.817,2 
COMPS,ioos:station:USF.COMPS:C10:1,2014-01-02T14:05:00Z,27.1690,-82.9260,-1.0,20.84,2 
COMPS,ioos:station:USF.COMPS:C10:1,2014-01-02T14:35:00Z,27.1690,-82.9260,-1.0,20.872,2 
COMPS,ioos:station:USF.COMPS:C10:1,2014-01-02T15:05:00Z,27.1690,-82.9260,-1.0,20.893,2 
COMPS,ioos:station:USF.COMPS:C10:1,2014-01-02T15:35:00Z,27.1690,-82.9260,-1.0,20.93,2 
COMPS,ioos:station:USF.COMPS:C10:1,2014-01-02T16:05:00Z,27.1690,-82.9260,-1.0,20.966,2 
COMPS,ioos:station:USF.COMPS:C10:1,2014-01-02T16:35:00Z,27.1690,-82.9260,-1.0,20.977,2 
COMPS,ioos:station:USF.COMPS:C10:1,2014-01-02T17:05:00Z,27.1690,-82.9260,-1.0,21.058,2 
COMPS,ioos:station:USF.COMPS:C10:1,2014-01-02T17:35:00Z,27.1690,-82.9260,-1.0,21.097,2 
COMPS,ioos:station:USF.COMPS:C10:1,2014-01-02T18:05:00Z,27.1690,-82.9260,-1.0,21.128,2 
COMPS,ioos:station:USF.COMPS:C10:1,2014-01-02T18:35:00Z,27.1690,-82.9260,-1.0,21.169,2 
COMPS,ioos:station:USF.COMPS:C10:1,2014-01-02T19:05:00Z,27.1690,-82.9260,-1.0,21.18,2 
COMPS,ioos:station:USF.COMPS:C10:1,2014-01-02T19:35:00Z,27.1690,-82.9260,-1.0,21.195,2 
COMPS,ioos:station:USF.COMPS:C10:1,2014-01-02T20:05:00Z,27.1690,-82.9260,-1.0,21.205,2 
COMPS,ioos:station:USF.COMPS:C10:1,2014-01-02T20:35:00Z,27.1690,-82.9260,-1.0,21.221,2 
COMPS,ioos:station:USF.COMPS:C10:1,2014-01-02T21:05:00Z,27.1690,-82.9260,-1.0,21.192,2 
COMPS,ioos:station:USF.COMPS:C10:1,2014-01-02T21:35:00Z,27.1690,-82.9260,-1.0,21.18,2 
COMPS,ioos:station:USF.COMPS:C10:1,2014-01-02T22:05:00Z,27.1690,-82.9260,-1.0,21.161,2 
COMPS,ioos:station:USF.COMPS:C10:1,2014-01-02T22:35:00Z,27.1690,-82.9260,-1.0,21.13,2 
COMPS,ioos:station:USF.COMPS:C10:1,2014-01-02T23:05:00Z,27.1690,-82.9260,-1.0,21.124,2 
COMPS,ioos:station:USF.COMPS:C10:1,2014-01-02T23:35:00Z,27.1690,-82.9260,-1.0,21.129,2 
COMPS,ioos:station:USF.COMPS:C10:1,2014-01-03T00:05:00Z,27.1690,-82.9260,-1.0,21.126,2 
COMPS,ioos:station:USF.COMPS:C10:1,2014-01-03T00:35:00Z,27.1690,-82.9260,-1.0,21.135,2 
COMPS,ioos:station:USF.COMPS:C10:1,2014-01-03T01:05:00Z,27.1690,-82.9260,-1.0,21.12,2 
COMPS,ioos:station:USF.COMPS:C10:1,2014-01-03T01:35:00Z,27.1690,-82.9260,-1.0,21.111,2 
COMPS,ioos:station:USF.COMPS:C10:1,2014-01-03T02:05:00Z,27.1690,-82.9260,-1.0,21.101,2 
COMPS,ioos:station:USF.COMPS:C10:1,2014-01-03T02:35:00Z,27.1690,-82.9260,-1.0,21.103,2 
COMPS,ioos:station:USF.COMPS:C10:1,2014-01-03T03:05:00Z,27.1690,-82.9260,-1.0,21.098,2 
COMPS,ioos:station:USF.COMPS:C10:1,2014-01-03T03:35:00Z,27.1690,-82.9260,-1.0,21.098,2 
COMPS,ioos:station:USF.COMPS:C10:1,2014-01-03T04:05:00Z,27.1690,-82.9260,-1.0,21.076,2 
COMPS,ioos:station:USF.COMPS:C10:1,2014-01-03T04:35:00Z,27.1690,-82.9260,-1.0,21.049,2 
COMPS,ioos:station:USF.COMPS:C10:1,2014-01-03T05:05:00Z,27.1690,-82.9260,-1.0,21.02,2 
COMPS,ioos:station:USF.COMPS:C10:1,2014-01-03T05:35:00Z,27.1690,-82.9260,-1.0,20.996,2 
COMPS,ioos:station:USF.COMPS:C10:1,2014-01-03T06:05:00Z,27.1690,-82.9260,-1.0,20.979,2 
COMPS,ioos:station:USF.COMPS:C10:1,2014-01-03T06:35:00Z,27.1690,-82.9260,-1.0,20.97,2 
COMPS,ioos:station:USF.COMPS:C10:1,2014-01-03T07:05:00Z,27.1690,-82.9260,-1.0,20.966,2 
COMPS,ioos:station:USF.COMPS:C10:1,2014-01-03T07:35:00Z,27.1690,-82.9260,-1.0,20.957,2 
COMPS,ioos:station:USF.COMPS:C10:1,2014-01-03T08:05:00Z,27.1690,-82.9260,-1.0,20.937,2 
COMPS,ioos:station:USF.COMPS:C10:1,2014-01-03T08:35:00Z,27.1690,-82.9260,-1.0,20.915,2 
COMPS,ioos:station:USF.COMPS:C10:1,2014-01-03T09:05:00Z,27.1690,-82.9260,-1.0,20.881,2 
COMPS,ioos:station:USF.COMPS:C10:1,2014-01-03T09:35:00Z,27.1690,-82.9260,-1.0,20.872,2 
COMPS,ioos:station:USF.COMPS:C10:1,2014-01-03T10:05:00Z,27.1690,-82.9260,-1.0,20.853,2 
COMPS,ioos:station:USF.COMPS:C10:1,2014-01-03T10:35:00Z,27.1690,-82.9260,-1.0,20.829,2 
COMPS,ioos:station:USF.COMPS:C10:1,2014-01-03T11:05:00Z,27.1690,-82.9260,-1.0,20.806,2 
COMPS,ioos:station:USF.COMPS:C10:1,2014-01-03T11:35:00Z,27.1690,-82.9260,-1.0,20.762,2 
COMPS,ioos:station:USF.COMPS:C10:1,2014-01-03T12:05:00Z,27.1690,-82.9260,-1.0,20.75,2 
COMPS,ioos:station:USF.COMPS:C10:1,2014-01-03T12:35:00Z,27.1690,-82.9260,-1.0,20.72,2 
COMPS,ioos:station:USF.COMPS:C10:1,2014-01-03T13:05:00Z,27.1690,-82.9260,-1.0,20.673,2 
COMPS,ioos:station:USF.COMPS:C10:1,2014-01-03T13:35:00Z,27.1690,-82.9260,-1.0,20.662,2 
COMPS,ioos:station:USF.COMPS:C10:1,2014-01-03T14:05:00Z,27.1690,-82.9260,-1.0,20.627,2 
COMPS,ioos:station:USF.COMPS:C10:1,2014-01-03T14:35:00Z,27.1690,-82.9260,-1.0,20.586,2 
COMPS,ioos:station:USF.COMPS:C10:1,2014-01-03T15:05:00Z,27.1690,-82.9260,-1.0,20.591,2 
COMPS,ioos:station:USF.COMPS:C10:1,2014-01-03T15:35:00Z,27.1690,-82.9260,-1.0,20.554,2 
COMPS,ioos:station:USF.COMPS:C10:1,2014-01-03T16:05:00Z,27.1690,-82.9260,-1.0,20.499,2 
COMPS,ioos:station:USF.COMPS:C10:1,2014-01-03T16:35:00Z,27.1690,-82.9260,-1.0,20.481,2 
COMPS,ioos:station:USF.COMPS:C10:1,2014-01-03T17:05:00Z,27.1690,-82.9260,-1.0,20.479,2 
COMPS,ioos:station:USF.COMPS:C10:1,2014-01-03T17:35:00Z,27.1690,-82.9260,-1.0,20.492,2 
COMPS,ioos:station:USF.COMPS:C10:1,2014-01-03T18:05:00Z,27.1690,-82.9260,-1.0,20.503,2 
COMPS,ioos:station:USF.COMPS:C10:1,2014-01-03T18:35:00Z,27.1690,-82.9260,-1.0,20.533,2 
COMPS,ioos:station:USF.COMPS:C10:1,2014-01-03T19:05:00Z,27.1690,-82.9260,-1.0,20.542,2 
COMPS,ioos:station:USF.COMPS:C10:1,2014-01-03T19:35:00Z,27.1690,-82.9260,-1.0,20.52,2 
COMPS,ioos:station:USF.COMPS:C10:1,2014-01-03T20:05:00Z,27.1690,-82.9260,-1.0,20.483,2 
COMPS,ioos:station:USF.COMPS:C10:1,2014-01-03T20:35:00Z,27.1690,-82.9260,-1.0,20.5,2 
COMPS,ioos:station:USF.COMPS:C10:1,2014-01-03T21:05:00Z,27.1690,-82.9260,-1.0,20.463,2 
COMPS,ioos:station:USF.COMPS:C10:1,2014-01-03T21:35:00Z,27.1690,-82.9260,-1.0,20.447,2 
COMPS,ioos:station:USF.COMPS:C10:1,2014-01-03T22:05:00Z,27.1690,-82.9260,-1.0,20.42,2 
COMPS,ioos:station:USF.COMPS:C10:1,2014-01-03T22:35:00Z,27.1690,-82.9260,-1.0,20.413,2 
COMPS,ioos:station:USF.COMPS:C10:1,2014-01-03T23:05:00Z,27.1690,-82.9260,-1.0,20.35,2 
COMPS,ioos:station:USF.COMPS:C10:1,2014-01-03T23:35:00Z,27.1690,-82.9260,-1.0,20.336,2 
COMPS,ioos:station:USF.COMPS:C10:1,2014-01-04T00:05:00Z,27.1690,-82.9260,-1.0,20.336,2 
COMPS,ioos:station:USF.COMPS:C10:1,2014-01-04T00:35:00Z,27.1690,-82.9260,-1.0,20.299,2 
COMPS,ioos:station:USF.COMPS:C10:1,2014-01-04T01:05:00Z,27.1690,-82.9260,-1.0,20.279,2 
COMPS,ioos:station:USF.COMPS:C10:1,2014-01-04T01:35:00Z,27.1690,-82.9260,-1.0,20.278,2 
COMPS,ioos:station:USF.COMPS:C10:1,2014-01-04T02:05:00Z,27.1690,-82.9260,-1.0,20.247,2 
COMPS,ioos:station:USF.COMPS:C10:1,2014-01-04T02:35:00Z,27.1690,-82.9260,-1.0,20.226,2 
COMPS,ioos:station:USF.COMPS:C10:1,2014-01-04T03:05:00Z,27.1690,-82.9260,-1.0,20.213,2 
COMPS,ioos:station:USF.COMPS:C10:1,2014-01-04T03:35:00Z,27.1690,-82.9260,-1.0,20.189,2 
COMPS,ioos:station:USF.COMPS:C10:1,2014-01-04T04:05:00Z,27.1690,-82.9260,-1.0,20.205,2 
COMPS,ioos:station:USF.COMPS:C10:1,2014-01-04T04:35:00Z,27.1690,-82.9260,-1.0,20.196,2 
COMPS,ioos:station:USF.COMPS:C10:1,2014-01-04T05:05:00Z,27.1690,-82.9260,-1.0,20.168,2 
COMPS,ioos:station:USF.COMPS:C10:1,2014-01-04T05:35:00Z,27.1690,-82.9260,-1.0,20.179,2 
COMPS,ioos:station:USF.COMPS:C10:1,2014-01-04T06:05:00Z,27.1690,-82.9260,-1.0,20.163,2 
COMPS,ioos:station:USF.COMPS:C10:1,2014-01-04T06:35:00Z,27.1690,-82.9260,-1.0,20.162,2 
COMPS,ioos:station:USF.COMPS:C10:1,2014-01-04T08:05:00Z,27.1690,-82.9260,-1.0,20.131,2 
COMPS,ioos:station:USF.COMPS:C10:1,2014-01-04T08:35:00Z,27.1690,-82.9260,-1.0,20.096,2 
COMPS,ioos:station:USF.COMPS:C10:1,2014-01-04T09:05:00Z,27.1690,-82.9260,-1.0,20.086,2 
COMPS,ioos:station:USF.COMPS:C10:1,2014-01-04T09:35:00Z,27.1690,-82.9260,-1.0,20.068,2 
COMPS,ioos:station:USF.COMPS:C10:1,2014-01-04T10:05:00Z,27.1690,-82.9260,-1.0,20.015,2 
COMPS,ioos:station:USF.COMPS:C10:1,2014-01-04T10:35:00Z,27.1690,-82.9260,-1.0,20.004,2 
COMPS,ioos:station:USF.COMPS:C10:1,2014-01-04T11:05:00Z,27.1690,-82.9260,-1.0,19.989,2 
COMPS,ioos:station:USF.COMPS:C10:1,2014-01-04T11:35:00Z,27.1690,-82.9260,-1.0,19.967,2 
COMPS,ioos:station:USF.COMPS:C10:1,2014-01-04T12:05:00Z,27.1690,-82.9260,-1.0,19.933,2 
COMPS,ioos:station:USF.COMPS:C10:1,2014-01-04T12:35:00Z,27.1690,-82.9260,-1.0,19.943,2 
COMPS,ioos:station:USF.COMPS:C10:1,2014-01-04T13:05:00Z,27.1690,-82.9260,-1.0,19.93,2 
COMPS,ioos:station:USF.COMPS:C10:1,2014-01-04T13:35:00Z,27.1690,-82.9260,-1.0,19.92,2 
COMPS,ioos:station:USF.COMPS:C10:1,2014-01-04T14:05:00Z,27.1690,-82.9260,-1.0,19.902,2 
COMPS,ioos:station:USF.COMPS:C10:1,2014-01-04T14:35:00Z,27.1690,-82.9260,-1.0,19.893,2 
COMPS,ioos:station:USF.COMPS:C10:1,2014-01-04T15:05:00Z,27.1690,-82.9260,-1.0,19.837,2 
COMPS,ioos:station:USF.COMPS:C10:1,2014-01-04T15:35:00Z,27.1690,-82.9260,-1.0,19.823,2 
COMPS,ioos:station:USF.COMPS:C10:1,2014-01-04T16:05:00Z,27.1690,-82.9260,-1.0,19.838,2 
COMPS,ioos:station:USF.COMPS:C10:1,2014-01-04T16:35:00Z,27.1690,-82.9260,-1.0,19.801,2 
COMPS,ioos:station:USF.COMPS:C10:1,2014-01-04T17:05:00Z,27.1690,-82.9260,-1.0,19.83,2 
COMPS,ioos:station:USF.COMPS:C10:1,2014-01-04T17:35:00Z,27.1690,-82.9260,-1.0,19.815,2 
COMPS,ioos:station:USF.COMPS:C10:1,2014-01-04T18:05:00Z,27.1690,-82.9260,-1.0,19.811,2 
COMPS,ioos:station:USF.COMPS:C10:1,2014-01-04T18:35:00Z,27.1690,-82.9260,-1.0,19.801,2 
COMPS,ioos:station:USF.COMPS:C10:1,2014-01-04T19:05:00Z,27.1690,-82.9260,-1.0,19.818,2 
COMPS,ioos:station:USF.COMPS:C10:1,2014-01-04T19:35:00Z,27.1690,-82.9260,-1.0,19.817,2 
COMPS,ioos:station:USF.COMPS:C10:1,2014-01-04T20:05:00Z,27.1690,-82.9260,-1.0,19.793,2 
COMPS,ioos:station:USF.COMPS:C10:1,2014-01-04T20:35:00Z,27.1690,-82.9260,-1.0,19.792,2 
COMPS,ioos:station:USF.COMPS:C10:1,2014-01-04T21:05:00Z,27.1690,-82.9260,-1.0,19.795,2 
COMPS,ioos:station:USF.COMPS:C10:1,2014-01-04T21:35:00Z,27.1690,-82.9260,-1.0,19.779,2 
COMPS,ioos:station:USF.COMPS:C10:1,2014-01-04T22:05:00Z,27.1690,-82.9260,-1.0,19.767,2 
COMPS,ioos:station:USF.COMPS:C10:1,2014-01-04T22:35:00Z,27.1690,-82.9260,-1.0,19.747,2 
COMPS,ioos:station:USF.COMPS:C10:1,2014-01-04T23:05:00Z,27.1690,-82.9260,-1.0,19.745,2 
COMPS,ioos:station:USF.COMPS:C10:1,2014-01-04T23:35:00Z,27.1690,-82.9260,-1.0,19.736,2 
COMPS,ioos:station:USF.COMPS:C10:1,2014-01-05T00:05:00Z,27.1690,-82.9260,-1.0,19.729,2 
COMPS,ioos:station:USF.COMPS:C10:1,2014-01-05T00:35:00Z,27.1690,-82.9260,-1.0,19.716,2 
COMPS,ioos:station:USF.COMPS:C10:1,2014-01-05T01:05:00Z,27.1690,-82.9260,-1.0,19.707,2 
COMPS,ioos:station:USF.COMPS:C10:1,2014-01-05T01:35:00Z,27.1690,-82.9260,-1.0,19.699,2 
COMPS,ioos:station:USF.COMPS:C10:1,2014-01-05T02:05:00Z,27.1690,-82.9260,-1.0,19.693,2 
COMPS,ioos:station:USF.COMPS:C10:1,2014-01-05T02:35:00Z,27.1690,-82.9260,-1.0,19.703,2 
COMPS,ioos:station:USF.COMPS:C10:1,2014-01-05T03:05:00Z,27.1690,-82.9260,-1.0,19.703,2 
COMPS,ioos:station:USF.COMPS:C10:1,2014-01-05T03:35:00Z,27.1690,-82.9260,-1.0,19.705,2 
COMPS,ioos:station:USF.COMPS:C10:1,2014-01-05T04:05:00Z,27.1690,-82.9260,-1.0,19.716,2 
COMPS,ioos:station:USF.COMPS:C10:1,2014-01-05T04:35:00Z,27.1690,-82.9260,-1.0,19.715,2 
COMPS,ioos:station:USF.COMPS:C10:1,2014-01-05T05:05:00Z,27.1690,-82.9260,-1.0,19.708,2 
COMPS,ioos:station:USF.COMPS:C10:1,2014-01-05T05:35:00Z,27.1690,-82.9260,-1.0,19.71,2 
COMPS,ioos:station:USF.COMPS:C10:1,2014-01-05T06:05:00Z,27.1690,-82.9260,-1.0,19.705,2 
COMPS,ioos:station:USF.COMPS:C10:1,2014-01-05T06:35:00Z,27.1690,-82.9260,-1.0,19.697,2 
COMPS,ioos:station:USF.COMPS:C10:1,2014-01-05T07:05:00Z,27.1690,-82.9260,-1.0,19.698,2 
COMPS,ioos:station:USF.COMPS:C10:1,2014-01-05T07:35:00Z,27.1690,-82.9260,-1.0,19.695,2 
COMPS,ioos:station:USF.COMPS:C10:1,2014-01-05T08:05:00Z,27.1690,-82.9260,-1.0,19.676,2 
COMPS,ioos:station:USF.COMPS:C10:1,2014-01-05T08:35:00Z,27.1690,-82.9260,-1.0,19.66,2 
COMPS,ioos:station:USF.COMPS:C10:1,2014-01-05T09:05:00Z,27.1690,-82.9260,-1.0,19.66,2 
COMPS,ioos:station:USF.COMPS:C10:1,2014-01-05T09:35:00Z,27.1690,-82.9260,-1.0,19.658,2 
COMPS,ioos:station:USF.COMPS:C10:1,2014-01-05T10:05:00Z,27.1690,-82.9260,-1.0,19.637,2 
COMPS,ioos:station:USF.COMPS:C10:1,2014-01-05T10:35:00Z,27.1690,-82.9260,-1.0,19.626,2 
COMPS,ioos:station:USF.COMPS:C10:1,2014-01-05T11:05:00Z,27.1690,-82.9260,-1.0,19.624,2 
COMPS,ioos:station:USF.COMPS:C10:1,2014-01-05T11:35:00Z,27.1690,-82.9260,-1.0,19.619,2 
COMPS,ioos:station:USF.COMPS:C10:1,2014-01-05T12:05:00Z,27.1690,-82.9260,-1.0,19.606,2 
COMPS,ioos:station:USF.COMPS:C10:1,2014-01-05T12:35:00Z,27.1690,-82.9260,-1.0,19.6,2 
COMPS,ioos:station:USF.COMPS:C10:1,2014-01-05T13:05:00Z,27.1690,-82.9260,-1.0,19.597,2 
COMPS,ioos:station:USF.COMPS:C10:1,2014-01-05T13:35:00Z,27.1690,-82.9260,-1.0,19.592,2 
COMPS,ioos:station:USF.COMPS:C10:1,2014-01-05T14:05:00Z,27.1690,-82.9260,-1.0,19.577,2 
COMPS,ioos:station:USF.COMPS:C10:1,2014-01-05T14:35:00Z,27.1690,-82.9260,-1.0,19.588,2 
COMPS,ioos:station:USF.COMPS:C10:1,2014-01-05T15:05:00Z,27.1690,-82.9260,-1.0,19.613,2 
COMPS,ioos:station:USF.COMPS:C10:1,2014-01-05T15:35:00Z,27.1690,-82.9260,-1.0,19.636,2 
COMPS,ioos:station:USF.COMPS:C10:1,2014-01-05T16:05:00Z,27.1690,-82.9260,-1.0,19.632,2 
COMPS,ioos:station:USF.COMPS:C10:1,2014-01-05T16:35:00Z,27.1690,-82.9260,-1.0,19.737,2 
COMPS,ioos:station:USF.COMPS:C10:1,2014-01-05T17:05:00Z,27.1690,-82.9260,-1.0,19.882,2 
COMPS,ioos:station:USF.COMPS:C10:1,2014-01-05T17:35:00Z,27.1690,-82.9260,-1.0,19.981,2 
COMPS,ioos:station:USF.COMPS:C10:1,2014-01-05T18:05:00Z,27.1690,-82.9260,-1.0,20.221,2 
COMPS,ioos:station:USF.COMPS:C10:1,2014-01-05T18:35:00Z,27.1690,-82.9260,-1.0,20.7,2 
COMPS,ioos:station:USF.COMPS:C10:1,2014-01-05T19:05:00Z,27.1690,-82.9260,-1.0,20.929,2 
COMPS,ioos:station:USF.COMPS:C10:1,2014-01-05T19:35:00Z,27.1690,-82.9260,-1.0,21.022,2 
COMPS,ioos:station:USF.COMPS:C10:1,2014-01-05T20:05:00Z,27.1690,-82.9260,-1.0,21.166,2 
COMPS,ioos:station:USF.COMPS:C10:1,2014-01-05T20:35:00Z,27.1690,-82.9260,-1.0,20.828,2 
COMPS,ioos:station:USF.COMPS:C10:1,2014-01-05T21:05:00Z,27.1690,-82.9260,-1.0,20.985,2 
COMPS,ioos:station:USF.COMPS:C10:1,2014-01-05T21:35:00Z,27.1690,-82.9260,-1.0,21.316,2 
COMPS,ioos:station:USF.COMPS:C10:1,2014-01-05T22:05:00Z,27.1690,-82.9260,-1.0,20.937,2 
COMPS,ioos:station:USF.COMPS:C10:1,2014-01-05T22:35:00Z,27.1690,-82.9260,-1.0,20.723,2 
COMPS,ioos:station:USF.COMPS:C10:1,2014-01-05T23:05:00Z,27.1690,-82.9260,-1.0,20.74,2 
COMPS,ioos:station:USF.COMPS:C10:1,2014-01-05T23:35:00Z,27.1690,-82.9260,-1.0,20.75,2 
COMPS,ioos:station:USF.COMPS:C10:1,2014-01-06T00:05:00Z,27.1690,-82.9260,-1.0,20.887,2 
COMPS,ioos:station:USF.COMPS:C10:1,2014-01-06T00:35:00Z,27.1690,-82.9260,-1.0,20.833,2 
COMPS,ioos:station:USF.COMPS:C10:1,2014-01-06T01:05:00Z,27.1690,-82.9260,-1.0,20.791,2 
COMPS,ioos:station:USF.COMPS:C10:1,2014-01-06T01:35:00Z,27.1690,-82.9260,-1.0,20.979,2 
COMPS,ioos:station:USF.COMPS:C10:1,2014-01-06T02:05:00Z,27.1690,-82.9260,-1.0,20.974,2 
COMPS,ioos:station:USF.COMPS:C10:1,2014-01-06T02:35:00Z,27.1690,-82.9260,-1.0,21.016,2 
COMPS,ioos:station:USF.COMPS:C10:1,2014-01-06T03:05:00Z,27.1690,-82.9260,-1.0,20.908,2 
COMPS,ioos:station:USF.COMPS:C10:1,2014-01-06T03:35:00Z,27.1690,-82.9260,-1.0,20.8,2 
COMPS,ioos:station:USF.COMPS:C10:1,2014-01-06T04:05:00Z,27.1690,-82.9260,-1.0,20.749,2 
COMPS,ioos:station:USF.COMPS:C10:1,2014-01-06T04:35:00Z,27.1690,-82.9260,-1.0,20.653,2 
COMPS,ioos:station:USF.COMPS:C10:1,2014-01-06T05:05:00Z,27.1690,-82.9260,-1.0,20.64,2 
COMPS,ioos:station:USF.COMPS:C10:1,2014-01-06T05:35:00Z,27.1690,-82.9260,-1.0,20.61,2 
COMPS,ioos:station:USF.COMPS:C10:1,2014-01-06T06:05:00Z,27.1690,-82.9260,-1.0,20.497,2 
COMPS,ioos:station:USF.COMPS:C10:1,2014-01-06T06:35:00Z,27.1690,-82.9260,-1.0,20.508,2 
COMPS,ioos:station:USF.COMPS:C10:1,2014-01-06T07:05:00Z,27.1690,-82.9260,-1.0,20.497,2 
COMPS,ioos:station:USF.COMPS:C10:1,2014-01-06T07:35:00Z,27.1690,-82.9260,-1.0,20.466,2 
COMPS,ioos:station:USF.COMPS:C10:1,2014-01-06T08:05:00Z,27.1690,-82.9260,-1.0,20.415,2 
COMPS,ioos:station:USF.COMPS:C10:1,2014-01-06T08:35:00Z,27.1690,-82.9260,-1.0,20.382,2 
COMPS,ioos:station:USF.COMPS:C10:1,2014-01-06T09:05:00Z,27.1690,-82.9260,-1.0,20.328,2 
COMPS,ioos:station:USF.COMPS:C10:1,2014-01-06T09:35:00Z,27.1690,-82.9260,-1.0,20.326,2 
COMPS,ioos:station:USF.COMPS:C10:1,2014-01-06T10:05:00Z,27.1690,-82.9260,-1.0,20.304,2 
COMPS,ioos:station:USF.COMPS:C10:1,2014-01-06T10:35:00Z,27.1690,-82.9260,-1.0,20.277,2 
COMPS,ioos:station:USF.COMPS:C10:1,2014-01-06T11:05:00Z,27.1690,-82.9260,-1.0,20.252,2 
COMPS,ioos:station:USF.COMPS:C10:1,2014-01-06T11:35:00Z,27.1690,-82.9260,-1.0,20.242,2 
COMPS,ioos:station:USF.COMPS:C10:1,2014-01-06T12:05:00Z,27.1690,-82.9260,-1.0,20.259,2 
COMPS,ioos:station:USF.COMPS:C10:1,2014-01-06T12:35:00Z,27.1690,-82.9260,-1.0,20.244,2 
COMPS,ioos:station:USF.COMPS:C10:1,2014-01-06T13:05:00Z,27.1690,-82.9260,-1.0,20.216,2 
COMPS,ioos:station:USF.COMPS:C10:1,2014-01-06T13:35:00Z,27.1690,-82.9260,-1.0,20.181,2 
COMPS,ioos:station:USF.COMPS:C10:1,2014-01-06T14:05:00Z,27.1690,-82.9260,-1.0,20.202,2 
COMPS,ioos:station:USF.COMPS:C10:1,2014-01-06T14:35:00Z,27.1690,-82.9260,-1.0,20.205,2 
COMPS,ioos:station:USF.COMPS:C10:1,2014-01-06T15:05:00Z,27.1690,-82.9260,-1.0,20.263,2 
COMPS,ioos:station:USF.COMPS:C10:1,2014-01-06T15:35:00Z,27.1690,-82.9260,-1.0,20.318,2 
COMPS,ioos:station:USF.COMPS:C10:1,2014-01-06T16:05:00Z,27.1690,-82.9260,-1.0,20.365,2 
COMPS,ioos:station:USF.COMPS:C10:1,2014-01-06T16:35:00Z,27.1690,-82.9260,-1.0,20.389,2 